TimeMST,TemperatureF,Dew PointF,Humidity,Sea Level PressureIn,VisibilityMPH,Wind Direction,Wind SpeedMPH,Gust SpeedMPH,PrecipitationIn,Events,Conditions,WindDirDegrees,DateUTC
12:44 AM,37.4,33.8,87,29.98,10.0,SW,10.4,-,0.00,,Overcast,220,2012-12-31 07:44:00
12:56 AM,37.0,34.0,89,29.91,10.0,SSW,10.4,-,0.00,,Overcast,200,2012-12-31 07:56:00
1:56 AM,36.0,34.0,93,29.92,10.0,SSW,9.2,-,N/A,,Overcast,200,2012-12-31 08:56:00
2:16 AM,35.6,33.8,93,29.98,10.0,SSW,9.2,-,0.01,,Overcast,210,2012-12-31 09:16:00
2:31 AM,35.6,33.8,93,29.98,10.0,SSW,6.9,-,0.01,,Overcast,210,2012-12-31 09:31:00
2:49 AM,35.6,33.8,93,29.99,10.0,WSW,6.9,-,0.01,,Overcast,240,2012-12-31 09:49:00
2:56 AM,35.1,33.1,92,29.93,9.0,SW,9.2,-,0.02,Rain,Light Rain,230,2012-12-31 09:56:00
3:17 AM,33.8,33.8,100,30.00,3.0,WSW,5.8,-,0.01,Snow,Light Snow,250,2012-12-31 10:17:00
3:25 AM,33.8,33.8,100,30.00,2.0,WSW,5.8,-,0.01,Snow,Light Snow,250,2012-12-31 10:25:00
3:54 AM,32.0,32.0,100,29.99,1.8,Calm,Calm,-,0.01,Snow,Light Snow,0,2012-12-31 10:54:00
3:56 AM,32.0,32.0,100,29.94,1.8,Calm,Calm,-,0.01,Snow,Light Snow,0,2012-12-31 10:56:00
4:05 AM,33.8,32.0,93,29.99,1.8,Calm,Calm,-,0.00,Snow,Light Snow,0,2012-12-31 11:05:00
4:14 AM,33.8,33.8,100,29.99,2.5,Calm,Calm,-,0.00,Snow,Light Snow,0,2012-12-31 11:14:00
4:35 AM,33.8,32.0,93,29.99,1.5,Calm,Calm,-,0.00,Snow,Light Snow,0,2012-12-31 11:35:00
4:44 AM,33.8,32.0,93,29.99,1.8,Calm,Calm,-,0.00,Snow,Light Snow,0,2012-12-31 11:44:00
4:56 AM,32.0,32.0,100,29.95,1.5,Calm,Calm,-,0.00,Snow,Light Snow,0,2012-12-31 11:56:00
5:05 AM,32.0,32.0,100,29.99,1.2,Calm,Calm,-,0.00,Snow,Light Snow,0,2012-12-31 12:05:00
5:56 AM,32.0,32.0,100,29.97,0.8,South,3.5,-,0.00,Snow,Light Snow,170,2012-12-31 12:56:00
6:17 AM,32.0,32.0,100,30.01,1.0,SE,4.6,-,0.00,Snow,Light Snow,140,2012-12-31 13:17:00
6:32 AM,32.0,32.0,100,30.02,1.5,SE,4.6,-,0.00,Snow,Light Snow,140,2012-12-31 13:32:00
6:56 AM,32.0,32.0,100,30.00,1.8,SE,4.6,-,0.00,Snow,Light Snow,130,2012-12-31 13:56:00
7:06 AM,32.0,32.0,100,30.03,1.5,SE,4.6,-,0.00,Snow,Light Snow,130,2012-12-31 14:06:00
7:27 AM,32.0,32.0,100,30.04,1.2,ESE,3.5,-,0.00,Snow,Light Snow,120,2012-12-31 14:27:00
7:38 AM,32.0,32.0,100,30.04,0.5,ESE,3.5,-,0.00,Fog-Snow,Snow,120,2012-12-31 14:38:00
7:52 AM,32.0,32.0,100,30.05,0.8,Calm,Calm,-,0.00,Snow,Light Snow,0,2012-12-31 14:52:00
7:53 AM,32.0,32.0,100,30.03,0.8,Calm,Calm,-,0.00,Snow,Light Snow,0,2012-12-31 14:53:00
8:04 AM,33.8,32.0,93,30.05,0.5,Calm,Calm,-,0.00,Fog-Snow,Snow,0,2012-12-31 15:04:00
8:25 AM,32.0,32.0,100,30.06,1.0,SSE,5.8,-,0.00,Snow,Light Snow,150,2012-12-31 15:25:00
8:41 AM,32.0,32.0,100,30.07,0.5,South,6.9,-,0.00,Fog-Snow,Snow,170,2012-12-31 15:41:00
8:56 AM,32.0,32.0,100,30.06,1.0,South,5.8,-,0.00,Snow,Light Snow,170,2012-12-31 15:56:00
9:03 AM,32.0,32.0,100,30.08,0.8,South,4.6,-,0.01,Snow,Light Snow,170,2012-12-31 16:03:00
9:20 AM,32.0,32.0,100,30.09,0.2,South,4.6,-,0.01,Fog-Snow,Snow,170,2012-12-31 16:20:00
9:46 AM,32.0,32.0,100,30.10,0.5,SSE,4.6,-,0.04,Fog-Snow,Light Snow,150,2012-12-31 16:46:00
9:56 AM,33.1,32.0,96,30.09,1.5,SE,4.6,-,0.05,,Overcast,140,2012-12-31 16:56:00
10:00 AM,33.8,32.0,93,30.10,3.0,SE,4.6,-,0.01,,Overcast,140,2012-12-31 17:00:00
10:56 AM,34.0,33.1,96,30.09,10.0,SSE,5.8,-,0.10,,Overcast,150,2012-12-31 17:56:00
11:06 AM,33.8,33.8,100,30.11,10.0,SSE,5.8,-,0.02,,Overcast,150,2012-12-31 18:06:00
11:43 AM,33.8,33.8,100,30.10,9.0,SSE,3.5,-,0.08,,Mostly Cloudy,150,2012-12-31 18:43:00
11:56 AM,34.0,34.0,100,30.08,6.0,SSE,5.8,-,0.09,,Mostly Cloudy,160,2012-12-31 18:56:00
12:35 PM,37.4,33.8,87,30.09,7.0,Calm,Calm,-,N/A,,Overcast,0,2012-12-31 19:35:00
12:56 PM,37.0,34.0,89,30.06,9.0,Calm,Calm,-,N/A,,Overcast,0,2012-12-31 19:56:00
1:04 PM,37.4,33.8,87,30.08,10.0,Calm,Calm,-,N/A,,Overcast,0,2012-12-31 20:04:00
1:34 PM,39.2,35.6,87,30.07,10.0,ESE,3.5,-,N/A,,Mostly Cloudy,110,2012-12-31 20:34:00
1:56 PM,41.0,36.0,82,30.04,10.0,Calm,Calm,-,N/A,,Mostly Cloudy,0,2012-12-31 20:56:00
2:56 PM,44.1,32.0,63,30.04,10.0,West,16.1,21.9,N/A,,Overcast,260,2012-12-31 21:56:00
3:56 PM,42.8,32.0,66,30.10,10.0,WSW,12.7,-,N/A,,Overcast,250,2012-12-31 22:56:00
4:56 PM,41.0,30.9,67,30.09,10.0,West,11.5,-,N/A,,Mostly Cloudy,270,2012-12-31 23:56:00
5:56 PM,37.0,30.9,79,30.11,10.0,Calm,Calm,-,0.00,,Clear,0,2013-01-01 00:56:00
6:56 PM,37.0,30.0,76,30.13,10.0,Calm,Calm,-,N/A,,Partly Cloudy,0,2013-01-01 01:56:00
7:56 PM,34.0,28.9,82,30.16,10.0,North,5.8,-,N/A,,Partly Cloudy,10,2013-01-01 02:56:00
8:56 PM,34.0,28.0,79,30.16,10.0,NNW,11.5,-,N/A,,Clear,340,2013-01-01 03:56:00
9:56 PM,32.0,27.0,82,30.17,10.0,North,4.6,-,N/A,,Clear,350,2013-01-01 04:56:00
10:56 PM,30.0,26.1,85,30.18,10.0,NNW,4.6,-,N/A,,Clear,340,2013-01-01 05:56:00
11:56 PM,28.0,25.0,88,30.19,10.0,Calm,Calm,-,N/A,,Clear,0,2013-01-01 06:56:00